Time,TemperatureF,DewpointF,PressureIn,WindDirection,WindDirectionDegrees,WindSpeedMPH,WindSpeedGustMPH,Humidity,HourlyPrecipIn,Conditions,Clouds,dailyrainin,SoftwareType,DateUTC
2013-09-24 00:00:00,57.0,55.0,30.11,ENE,76,0.0,0.0,93,0.00,,---,0.00,VWS V14.01,2013-09-24 04:00:00,
2013-09-24 00:01:00,57.0,55.0,30.11,ENE,76,0.0,0.0,93,0.00,,---,0.00,VWS V14.01,2013-09-24 04:01:00,
2013-09-24 00:02:00,57.0,55.0,30.11,ENE,76,0.0,0.0,93,0.00,,---,0.00,VWS V14.01,2013-09-24 04:02:00,
2013-09-24 00:03:00,57.0,55.0,30.11,ENE,77,0.0,0.0,93,0.00,,---,0.00,VWS V14.01,2013-09-24 04:03:00,
2013-09-24 00:04:00,57.0,55.0,30.11,ENE,75,0.0,0.0,93,0.00,,---,0.00,VWS V14.01,2013-09-24 04:04:00,
2013-09-24 00:05:00,57.1,55.1,30.11,ENE,76,0.0,0.0,93,0.00,,---,0.00,VWS V14.01,2013-09-24 04:05:00,
2013-09-24 00:06:00,57.3,55.3,30.11,ENE,78,0.0,0.0,93,0.00,,---,0.00,VWS V14.01,2013-09-24 04:06:00,
2013-09-24 00:07:00,57.4,55.4,30.11,ENE,78,0.0,0.0,93,0.00,,---,0.00,VWS V14.01,2013-09-24 04:07:00,
2013-09-24 00:08:00,57.5,55.5,30.11,East,84,0.0,0.0,93,0.00,,---,0.00,VWS V14.01,2013-09-24 04:08:00,
2013-09-24 00:09:00,57.7,55.7,30.11,East,83,0.0,0.0,93,0.00,,---,0.00,VWS V14.01,2013-09-24 04:09:00,
2013-09-24 00:10:00,57.9,55.6,30.11,East,84,0.0,0.0,92,0.00,,---,0.00,VWS V14.01,2013-09-24 04:10:00,
2013-09-24 00:11:00,58.2,55.6,30.11,East,84,0.0,0.0,91,0.00,,---,0.00,VWS V14.01,2013-09-24 04:11:00,
2013-09-24 00:12:00,58.3,55.7,30.11,East,86,0.0,0.0,91,0.00,,---,0.00,VWS V14.01,2013-09-24 04:12:00,
2013-09-24 00:13:00,58.5,55.9,30.11,East,86,0.0,0.0,91,0.00,,---,0.00,VWS V14.01,2013-09-24 04:13:00,
2013-09-24 00:14:00,58.6,55.7,30.11,East,88,0.0,0.0,90,0.00,,---,0.00,VWS V14.01,2013-09-24 04:14:00,
2013-09-24 00:15:00,58.8,55.6,30.11,East,88,0.0,0.0,89,0.00,,---,0.00,VWS V14.01,2013-09-24 04:15:00,
2013-09-24 00:16:00,59.0,55.8,30.11,East,88,0.0,0.0,89,0.00,,---,0.00,VWS V14.01,2013-09-24 04:16:00,
2013-09-24 00:17:00,59.1,55.9,30.11,East,79,3.0,3.0,89,0.00,,---,0.00,VWS V14.01,2013-09-24 04:17:00,
2013-09-24 00:18:00,59.1,55.6,30.11,East,86,2.0,3.0,88,0.00,,---,0.00,VWS V14.01,2013-09-24 04:18:00,
2013-09-24 00:19:00,59.2,55.7,30.11,East,86,2.0,2.0,88,0.00,,---,0.00,VWS V14.01,2013-09-24 04:19:00,
2013-09-24 00:20:00,59.2,55.7,30.11,East,86,2.0,2.0,88,0.00,,---,0.00,VWS V14.01,2013-09-24 04:20:00,
2013-09-24 00:21:00,59.3,55.4,30.11,East,86,2.0,2.0,87,0.00,,---,0.00,VWS V14.01,2013-09-24 04:21:00,
2013-09-24 00:22:00,59.3,55.4,30.11,East,86,2.0,2.0,87,0.00,,---,0.00,VWS V14.01,2013-09-24 04:22:00,
2013-09-24 00:23:00,59.4,55.5,30.11,East,86,3.0,3.0,87,0.00,,---,0.00,VWS V14.01,2013-09-24 04:23:00,
2013-09-24 00:24:00,59.4,55.5,30.11,East,86,2.0,3.0,87,0.00,,---,0.00,VWS V14.01,2013-09-24 04:24:00,
2013-09-24 00:25:00,59.5,55.3,30.11,East,87,3.0,3.0,86,0.00,,---,0.00,VWS V14.01,2013-09-24 04:25:00,
2013-09-24 00:26:00,59.4,55.2,30.11,East,89,2.0,3.0,86,0.00,,---,0.00,VWS V14.01,2013-09-24 04:26:00,
2013-09-24 00:27:00,59.4,55.2,30.11,East,88,3.0,3.0,86,0.00,,---,0.00,VWS V14.01,2013-09-24 04:27:00,
2013-09-24 00:28:00,59.4,55.2,30.11,East,96,3.0,3.0,86,0.00,,---,0.00,VWS V14.01,2013-09-24 04:28:00,
2013-09-24 00:29:00,59.4,55.2,30.11,East,90,3.0,5.0,86,0.00,,---,0.00,VWS V14.01,2013-09-24 04:29:00,
2013-09-24 00:30:00,59.3,55.1,30.11,East,91,3.0,3.0,86,0.00,,---,0.00,VWS V14.01,2013-09-24 04:30:00,
2013-09-24 00:31:00,59.3,55.1,30.11,East,96,3.0,3.0,86,0.00,,---,0.00,VWS V14.01,2013-09-24 04:31:00,
2013-09-24 00:32:00,59.3,55.1,30.11,East,92,3.0,3.0,86,0.00,,---,0.00,VWS V14.01,2013-09-24 04:32:00,
2013-09-24 00:33:00,59.3,55.1,30.11,East,91,3.0,3.0,86,0.00,,---,0.00,VWS V14.01,2013-09-24 04:33:00,
2013-09-24 00:34:00,59.2,55.0,30.11,East,89,2.0,3.0,86,0.00,,---,0.00,VWS V14.01,2013-09-24 04:34:00,
2013-09-24 00:35:00,59.2,55.0,30.11,East,89,2.0,3.0,86,0.00,,---,0.00,VWS V14.01,2013-09-24 04:35:00,
2013-09-24 00:36:00,59.1,54.9,30.11,East,89,1.0,2.0,86,0.00,,---,0.00,VWS V14.01,2013-09-24 04:36:00,
2013-09-24 00:37:00,59.1,54.9,30.11,East,88,2.0,2.0,86,0.00,,---,0.00,VWS V14.01,2013-09-24 04:37:00,
2013-09-24 00:38:00,59.1,54.9,30.11,East,89,2.0,2.0,86,0.00,,---,0.00,VWS V14.01,2013-09-24 04:38:00,
2013-09-24 00:39:00,59.1,54.9,30.11,East,88,3.0,3.0,86,0.00,,---,0.00,VWS V14.01,2013-09-24 04:39:00,
2013-09-24 00:40:00,59.1,54.9,30.11,East,86,3.0,3.0,86,0.00,,---,0.00,VWS V14.01,2013-09-24 04:40:00,
2013-09-24 00:41:00,59.2,55.0,30.11,East,81,3.0,3.0,86,0.00,,---,0.00,VWS V14.01,2013-09-24 04:41:00,
2013-09-24 00:42:00,59.2,55.0,30.11,East,83,3.0,3.0,86,0.00,,---,0.00,VWS V14.01,2013-09-24 04:42:00,
2013-09-24 00:43:00,59.2,55.0,30.11,East,84,2.0,3.0,86,0.00,,---,0.00,VWS V14.01,2013-09-24 04:43:00,
2013-09-24 00:44:00,59.3,55.1,30.11,East,91,2.0,3.0,86,0.00,,---,0.00,VWS V14.01,2013-09-24 04:44:00,
2013-09-24 00:45:00,59.3,54.8,30.11,East,84,2.0,3.0,85,0.00,,---,0.00,VWS V14.01,2013-09-24 04:45:00,
2013-09-24 00:46:00,59.3,54.8,30.11,East,86,2.0,3.0,85,0.00,,---,0.00,VWS V14.01,2013-09-24 04:46:00,
2013-09-24 00:47:00,59.3,54.8,30.11,East,88,3.0,3.0,85,0.00,,---,0.00,VWS V14.01,2013-09-24 04:47:00,
2013-09-24 00:48:00,59.3,54.8,30.11,East,83,2.0,3.0,85,0.00,,---,0.00,VWS V14.01,2013-09-24 04:48:00,
2013-09-24 00:49:00,59.4,54.9,30.11,East,88,2.0,2.0,85,0.00,,---,0.00,VWS V14.01,2013-09-24 04:49:00,
2013-09-24 00:50:00,59.4,54.9,30.11,East,92,2.0,3.0,85,0.00,,---,0.00,VWS V14.01,2013-09-24 04:50:00,
2013-09-24 00:51:00,59.4,54.9,30.11,East,92,3.0,3.0,85,0.00,,---,0.00,VWS V14.01,2013-09-24 04:51:00,
2013-09-24 00:52:00,59.4,54.9,30.11,East,85,3.0,3.0,85,0.00,,---,0.00,VWS V14.01,2013-09-24 04:52:00,
2013-09-24 00:53:00,59.4,54.9,30.11,East,98,5.0,5.0,85,0.00,,---,0.00,VWS V14.01,2013-09-24 04:53:00,
2013-09-24 00:54:00,59.4,54.9,30.11,East,84,2.0,5.0,85,0.00,,---,0.00,VWS V14.01,2013-09-24 04:54:00,
2013-09-24 00:55:00,59.3,54.8,30.11,East,90,3.0,3.0,85,0.00,,---,0.00,VWS V14.01,2013-09-24 04:55:00,
2013-09-24 00:56:00,59.3,54.8,30.11,East,90,3.0,5.0,85,0.00,,---,0.00,VWS V14.01,2013-09-24 04:56:00,
2013-09-24 00:57:00,59.3,54.8,30.11,East,89,3.0,5.0,85,0.00,,---,0.00,VWS V14.01,2013-09-24 04:57:00,
2013-09-24 00:58:00,59.2,54.7,30.11,East,86,3.0,3.0,85,0.00,,---,0.00,VWS V14.01,2013-09-24 04:58:00,
2013-09-24 00:59:00,59.3,54.8,30.11,East,90,5.0,5.0,85,0.00,,---,0.00,VWS V14.01,2013-09-24 04:59:00,
2013-09-24 01:01:00,59.2,54.7,30.11,East,91,3.0,3.0,85,0.00,,---,0.00,VWS V14.01,2013-09-24 05:01:00,
2013-09-24 01:04:00,59.2,54.7,30.11,East,91,3.0,3.0,85,0.00,,---,0.00,VWS V14.01,2013-09-24 05:04:00,
2013-09-24 01:05:00,59.1,54.6,30.11,East,85,3.0,3.0,85,0.00,,---,0.00,VWS V14.01,2013-09-24 05:05:00,
2013-09-24 01:06:00,59.1,54.6,30.11,East,80,3.0,3.0,85,0.00,,---,0.00,VWS V14.01,2013-09-24 05:06:00,
2013-09-24 01:07:00,59.1,54.6,30.11,East,92,2.0,3.0,85,0.00,,---,0.00,VWS V14.01,2013-09-24 05:07:00,
2013-09-24 01:08:00,59.0,54.5,30.11,East,88,2.0,2.0,85,0.00,,---,0.00,VWS V14.01,2013-09-24 05:08:00,
2013-09-24 01:09:00,59.0,54.5,30.11,East,90,2.0,3.0,85,0.00,,---,0.00,VWS V14.01,2013-09-24 05:09:00,
2013-09-24 01:10:00,59.0,54.5,30.11,East,95,3.0,3.0,85,0.00,,---,0.00,VWS V14.01,2013-09-24 05:10:00,
2013-09-24 01:11:00,59.0,54.5,30.11,East,96,2.0,2.0,85,0.00,,---,0.00,VWS V14.01,2013-09-24 05:11:00,
2013-09-24 01:12:00,59.0,54.5,30.11,East,95,2.0,2.0,85,0.00,,---,0.00,VWS V14.01,2013-09-24 05:12:00,
2013-09-24 01:13:00,59.0,54.8,30.11,East,96,0.0,2.0,86,0.00,,---,0.00,VWS V14.01,2013-09-24 05:13:00,
2013-09-24 01:14:00,58.9,54.7,30.11,East,96,0.0,1.0,86,0.00,,---,0.00,VWS V14.01,2013-09-24 05:14:00,
2013-09-24 01:15:00,58.9,54.7,30.11,East,96,0.0,0.0,86,0.00,,---,0.00,VWS V14.01,2013-09-24 05:15:00,
2013-09-24 01:16:00,58.8,54.6,30.11,East,96,1.0,1.0,86,0.00,,---,0.00,VWS V14.01,2013-09-24 05:16:00,
2013-09-24 01:17:00,58.8,54.6,30.11,East,96,1.0,1.0,86,0.00,,---,0.00,VWS V14.01,2013-09-24 05:17:00,
2013-09-24 01:18:00,58.8,54.6,30.11,East,96,1.0,1.0,86,0.00,,---,0.00,VWS V14.01,2013-09-24 05:18:00,
2013-09-24 01:19:00,58.7,54.5,30.11,East,96,2.0,2.0,86,0.00,,---,0.00,VWS V14.01,2013-09-24 05:19:00,
2013-09-24 01:20:00,58.7,54.5,30.11,East,96,2.0,2.0,86,0.00,,---,0.00,VWS V14.01,2013-09-24 05:20:00,
2013-09-24 01:21:00,58.6,54.4,30.11,East,92,1.0,1.0,86,0.00,,---,0.00,VWS V14.01,2013-09-24 05:21:00,
2013-09-24 01:22:00,58.6,54.4,30.11,East,91,1.0,1.0,86,0.00,,---,0.00,VWS V14.01,2013-09-24 05:22:00,
2013-09-24 01:23:00,58.6,54.4,30.11,East,97,2.0,2.0,86,0.00,,---,0.00,VWS V14.01,2013-09-24 05:23:00,
2013-09-24 01:24:00,58.6,54.4,30.11,East,92,2.0,2.0,86,0.00,,---,0.00,VWS V14.01,2013-09-24 05:24:00,
2013-09-24 01:25:00,58.6,54.4,30.11,East,92,2.0,2.0,86,0.00,,---,0.00,VWS V14.01,2013-09-24 05:25:00,
2013-09-24 01:26:00,58.5,54.3,30.11,East,92,2.0,2.0,86,0.00,,---,0.00,VWS V14.01,2013-09-24 05:26:00,
2013-09-24 01:27:00,58.5,54.7,30.11,East,92,1.0,2.0,87,0.00,,---,0.00,VWS V14.01,2013-09-24 05:27:00,
2013-09-24 01:28:00,58.5,54.7,30.11,East,93,2.0,2.0,87,0.00,,---,0.00,VWS V14.01,2013-09-24 05:28:00,
2013-09-24 01:29:00,58.5,54.7,30.11,East,93,2.0,2.0,87,0.00,,---,0.00,VWS V14.01,2013-09-24 05:29:00,
2013-09-24 01:30:00,58.4,54.5,30.11,East,92,2.0,2.0,87,0.00,,---,0.00,VWS V14.01,2013-09-24 05:30:00,
2013-09-24 01:31:00,58.4,54.5,30.11,East,93,2.0,2.0,87,0.00,,---,0.00,VWS V14.01,2013-09-24 05:31:00,
2013-09-24 01:32:00,58.4,54.5,30.11,East,93,2.0,2.0,87,0.00,,---,0.00,VWS V14.01,2013-09-24 05:32:00,
2013-09-24 01:33:00,58.4,54.5,30.11,East,92,3.0,3.0,87,0.00,,---,0.00,VWS V14.01,2013-09-24 05:33:00,
2013-09-24 01:34:00,58.4,54.5,30.11,East,92,2.0,3.0,87,0.00,,---,0.00,VWS V14.01,2013-09-24 05:34:00,
2013-09-24 01:35:00,58.4,54.5,30.11,East,92,2.0,2.0,87,0.00,,---,0.00,VWS V14.01,2013-09-24 05:35:00,
2013-09-24 01:36:00,58.4,54.5,30.11,East,92,3.0,3.0,87,0.00,,---,0.00,VWS V14.01,2013-09-24 05:36:00,
2013-09-24 01:37:00,58.3,54.5,30.11,East,90,2.0,3.0,87,0.00,,---,0.00,VWS V14.01,2013-09-24 05:37:00,
2013-09-24 01:38:00,58.3,54.5,30.11,East,90,3.0,3.0,87,0.00,,---,0.00,VWS V14.01,2013-09-24 05:38:00,
2013-09-24 01:39:00,58.3,54.5,30.11,East,90,2.0,3.0,87,0.00,,---,0.00,VWS V14.01,2013-09-24 05:39:00,
2013-09-24 01:40:00,58.2,54.3,30.11,East,90,2.0,3.0,87,0.00,,---,0.00,VWS V14.01,2013-09-24 05:40:00,
2013-09-24 01:41:00,58.2,54.4,30.11,East,90,2.0,2.0,87,0.00,,---,0.00,VWS V14.01,2013-09-24 05:41:00,
2013-09-24 01:42:00,58.2,54.3,30.11,East,90,2.0,2.0,87,0.00,,---,0.00,VWS V14.01,2013-09-24 05:42:00,
2013-09-24 01:43:00,58.2,54.3,30.11,East,90,2.0,2.0,87,0.00,,---,0.00,VWS V14.01,2013-09-24 05:43:00,
2013-09-24 01:44:00,58.1,54.3,30.11,East,90,2.0,2.0,87,0.00,,---,0.00,VWS V14.01,2013-09-24 05:44:00,
2013-09-24 01:45:00,58.1,54.3,30.11,East,90,2.0,2.0,87,0.00,,---,0.00,VWS V14.01,2013-09-24 05:45:00,
2013-09-24 01:46:00,58.1,54.3,30.11,East,90,2.0,2.0,87,0.00,,---,0.00,VWS V14.01,2013-09-24 05:46:00,
2013-09-24 01:47:00,58.1,54.3,30.11,East,90,2.0,2.0,87,0.00,,---,0.00,VWS V14.01,2013-09-24 05:47:00,
2013-09-24 01:48:00,58.1,54.3,30.11,East,90,2.0,2.0,87,0.00,,---,0.00,VWS V14.01,2013-09-24 05:48:00,
2013-09-24 01:49:00,58.1,54.3,30.11,East,90,3.0,3.0,87,0.00,,---,0.00,VWS V14.01,2013-09-24 05:49:00,
2013-09-24 01:50:00,58.1,54.3,30.11,East,90,2.0,3.0,87,0.00,,---,0.00,VWS V14.01,2013-09-24 05:50:00,
2013-09-24 01:51:00,58.1,54.3,30.11,East,91,2.0,2.0,87,0.00,,---,0.00,VWS V14.01,2013-09-24 05:51:00,
2013-09-24 01:52:00,58.1,54.3,30.11,East,90,2.0,2.0,87,0.00,,---,0.00,VWS V14.01,2013-09-24 05:52:00,
2013-09-24 01:53:00,58.1,54.3,30.11,East,90,2.0,2.0,87,0.00,,---,0.00,VWS V14.01,2013-09-24 05:53:00,
2013-09-24 01:54:00,58.1,54.3,30.11,East,90,2.0,2.0,87,0.00,,---,0.00,VWS V14.01,2013-09-24 05:54:00,
2013-09-24 01:55:00,58.1,54.3,30.11,East,90,2.0,3.0,87,0.00,,---,0.00,VWS V14.01,2013-09-24 05:55:00,
2013-09-24 01:56:00,58.1,54.3,30.11,East,88,2.0,2.0,87,0.00,,---,0.00,VWS V14.01,2013-09-24 05:56:00,
2013-09-24 01:57:00,58.0,54.2,30.11,East,89,2.0,2.0,87,0.00,,---,0.00,VWS V14.01,2013-09-24 05:57:00,
2013-09-24 01:58:00,58.0,54.5,30.11,East,89,2.0,2.0,88,0.00,,---,0.00,VWS V14.01,2013-09-24 05:58:00,
2013-09-24 01:59:00,58.0,54.5,30.11,East,89,2.0,2.0,88,0.00,,---,0.00,VWS V14.01,2013-09-24 05:59:00,
2013-09-24 02:01:00,58.0,54.2,30.11,East,88,1.0,1.0,87,0.00,,---,0.00,VWS V14.01,2013-09-24 06:01:00,
2013-09-24 02:05:00,58.0,54.2,30.11,East,88,1.0,1.0,87,0.00,,---,0.00,VWS V14.01,2013-09-24 06:05:00,
2013-09-24 02:06:00,58.0,54.5,30.11,East,88,1.0,1.0,88,0.00,,---,0.00,VWS V14.01,2013-09-24 06:06:00,
2013-09-24 02:07:00,58.0,54.5,30.11,East,88,2.0,2.0,88,0.00,,---,0.00,VWS V14.01,2013-09-24 06:07:00,
2013-09-24 02:08:00,58.0,54.5,30.11,East,88,2.0,2.0,88,0.00,,---,0.00,VWS V14.01,2013-09-24 06:08:00,
2013-09-24 02:09:00,58.0,54.5,30.11,East,89,2.0,2.0,88,0.00,,---,0.00,VWS V14.01,2013-09-24 06:09:00,
2013-09-24 02:10:00,58.0,54.5,30.11,East,89,2.0,2.0,88,0.00,,---,0.00,VWS V14.01,2013-09-24 06:10:00,
2013-09-24 02:11:00,58.0,54.5,30.11,East,88,2.0,2.0,88,0.00,,---,0.00,VWS V14.01,2013-09-24 06:11:00,
2013-09-24 02:12:00,58.0,54.5,30.11,East,88,2.0,2.0,88,0.00,,---,0.00,VWS V14.01,2013-09-24 06:12:00,
2013-09-24 02:13:00,58.0,54.5,30.11,East,88,2.0,2.0,88,0.00,,---,0.00,VWS V14.01,2013-09-24 06:13:00,
2013-09-24 02:14:00,57.9,54.4,30.11,East,88,1.0,2.0,88,0.00,,---,0.00,VWS V14.01,2013-09-24 06:14:00,
2013-09-24 02:15:00,57.9,54.4,30.11,East,88,1.0,2.0,88,0.00,,---,0.00,VWS V14.01,2013-09-24 06:15:00,
2013-09-24 02:16:00,57.9,54.4,30.11,East,89,1.0,1.0,88,0.00,,---,0.00,VWS V14.01,2013-09-24 06:16:00,
2013-09-24 02:17:00,57.9,54.4,30.11,East,89,1.0,1.0,88,0.00,,---,0.00,VWS V14.01,2013-09-24 06:17:00,
2013-09-24 02:18:00,57.9,54.4,30.11,East,88,1.0,2.0,88,0.00,,---,0.00,VWS V14.01,2013-09-24 06:18:00,
2013-09-24 02:19:00,57.9,54.4,30.11,East,89,1.0,1.0,88,0.00,,---,0.00,VWS V14.01,2013-09-24 06:19:00,
2013-09-24 02:20:00,57.8,54.3,30.11,East,89,2.0,2.0,88,0.00,,---,0.00,VWS V14.01,2013-09-24 06:20:00,
2013-09-24 02:21:00,57.9,54.4,30.11,East,89,2.0,2.0,88,0.00,,---,0.00,VWS V14.01,2013-09-24 06:21:00,
2013-09-24 02:22:00,57.9,54.4,30.11,East,88,2.0,2.0,88,0.00,,---,0.00,VWS V14.01,2013-09-24 06:22:00,
2013-09-24 02:23:00,57.9,54.4,30.11,East,88,2.0,2.0,88,0.00,,---,0.00,VWS V14.01,2013-09-24 06:23:00,
2013-09-24 02:24:00,57.9,54.4,30.11,East,89,2.0,2.0,88,0.00,,---,0.00,VWS V14.01,2013-09-24 06:24:00,
2013-09-24 02:25:00,57.8,54.3,30.11,East,89,2.0,2.0,88,0.00,,---,0.00,VWS V14.01,2013-09-24 06:25:00,
2013-09-24 02:26:00,57.8,54.3,30.11,ESE,107,2.0,3.0,88,0.00,,---,0.00,VWS V14.01,2013-09-24 06:26:00,
2013-09-24 02:27:00,57.8,54.3,30.11,ESE,107,2.0,3.0,88,0.00,,---,0.00,VWS V14.01,2013-09-24 06:27:00,
2013-09-24 02:28:00,57.8,54.3,30.11,East,100,2.0,2.0,88,0.00,,---,0.00,VWS V14.01,2013-09-24 06:28:00,
2013-09-24 02:29:00,57.7,54.2,30.11,East,97,2.0,2.0,88,0.00,,---,0.00,VWS V14.01,2013-09-24 06:29:00,
2013-09-24 02:30:00,57.7,54.2,30.11,East,92,3.0,3.0,88,0.00,,---,0.00,VWS V14.01,2013-09-24 06:30:00,
2013-09-24 02:31:00,57.6,54.1,30.11,East,97,3.0,3.0,88,0.00,,---,0.00,VWS V14.01,2013-09-24 06:31:00,
2013-09-24 02:32:00,57.6,54.1,30.11,East,97,3.0,3.0,88,0.00,,---,0.00,VWS V14.01,2013-09-24 06:32:00,
2013-09-24 02:33:00,57.6,54.1,30.11,East,94,3.0,3.0,88,0.00,,---,0.00,VWS V14.01,2013-09-24 06:33:00,
2013-09-24 02:34:00,57.6,54.1,30.11,East,92,3.0,3.0,88,0.00,,---,0.00,VWS V14.01,2013-09-24 06:34:00,
2013-09-24 02:35:00,57.6,54.1,30.11,East,93,3.0,3.0,88,0.00,,---,0.00,VWS V14.01,2013-09-24 06:35:00,
2013-09-24 02:36:00,57.5,54.0,30.11,East,96,2.0,2.0,88,0.00,,---,0.00,VWS V14.01,2013-09-24 06:36:00,
2013-09-24 02:37:00,57.5,54.3,30.11,East,96,3.0,3.0,89,0.00,,---,0.00,VWS V14.01,2013-09-24 06:37:00,
2013-09-24 02:38:00,57.4,54.2,30.11,East,88,2.0,3.0,89,0.00,,---,0.00,VWS V14.01,2013-09-24 06:38:00,
2013-09-24 02:39:00,57.4,54.2,30.11,East,88,2.0,2.0,89,0.00,,---,0.00,VWS V14.01,2013-09-24 06:39:00,
2013-09-24 02:40:00,57.4,54.2,30.11,East,88,3.0,3.0,89,0.00,,---,0.00,VWS V14.01,2013-09-24 06:40:00,
2013-09-24 02:41:00,57.3,54.1,30.11,East,88,1.0,2.0,89,0.00,,---,0.00,VWS V14.01,2013-09-24 06:41:00,
2013-09-24 02:42:00,57.3,54.1,30.11,East,88,2.0,2.0,89,0.00,,---,0.00,VWS V14.01,2013-09-24 06:42:00,
2013-09-24 02:43:00,57.3,54.1,30.11,East,88,2.0,2.0,89,0.00,,---,0.00,VWS V14.01,2013-09-24 06:43:00,
2013-09-24 02:44:00,57.2,54.0,30.11,East,88,1.0,2.0,89,0.00,,---,0.00,VWS V14.01,2013-09-24 06:44:00,
2013-09-24 02:45:00,57.2,54.0,30.11,East,88,1.0,2.0,89,0.00,,---,0.00,VWS V14.01,2013-09-24 06:45:00,
2013-09-24 02:46:00,57.2,54.0,30.11,East,87,1.0,1.0,89,0.00,,---,0.00,VWS V14.01,2013-09-24 06:46:00,
2013-09-24 02:47:00,57.2,54.0,30.11,East,88,1.0,1.0,89,0.00,,---,0.00,VWS V14.01,2013-09-24 06:47:00,
2013-09-24 02:48:00,57.2,54.0,30.11,East,87,1.0,1.0,89,0.00,,---,0.00,VWS V14.01,2013-09-24 06:48:00,
2013-09-24 02:49:00,57.2,54.0,30.11,East,88,1.0,2.0,89,0.00,,---,0.00,VWS V14.01,2013-09-24 06:49:00,
2013-09-24 02:50:00,57.1,53.9,30.11,East,88,1.0,1.0,89,0.00,,---,0.00,VWS V14.01,2013-09-24 06:50:00,
2013-09-24 02:51:00,57.1,53.9,30.11,East,88,1.0,1.0,89,0.00,,---,0.00,VWS V14.01,2013-09-24 06:51:00,
2013-09-24 02:52:00,57.1,53.9,30.11,East,88,1.0,1.0,89,0.00,,---,0.00,VWS V14.01,2013-09-24 06:52:00,
2013-09-24 02:53:00,57.0,53.8,30.11,East,88,0.0,1.0,89,0.00,,---,0.00,VWS V14.01,2013-09-24 06:53:00,
2013-09-24 02:54:00,57.0,53.8,30.11,East,88,0.0,0.0,89,0.00,,---,0.00,VWS V14.01,2013-09-24 06:54:00,
2013-09-24 02:55:00,57.0,53.8,30.11,East,88,0.0,0.0,89,0.00,,---,0.00,VWS V14.01,2013-09-24 06:55:00,
2013-09-24 02:56:00,56.9,53.7,30.11,East,88,0.0,0.0,89,0.00,,---,0.00,VWS V14.01,2013-09-24 06:56:00,
2013-09-24 02:57:00,56.9,53.7,30.11,East,88,0.0,0.0,89,0.00,,---,0.00,VWS V14.01,2013-09-24 06:57:00,
2013-09-24 02:58:00,56.8,53.6,30.11,East,87,0.0,0.0,89,0.00,,---,0.00,VWS V14.01,2013-09-24 06:58:00,
2013-09-24 02:59:00,56.7,53.5,30.11,East,88,0.0,0.0,89,0.00,,---,0.00,VWS V14.01,2013-09-24 06:59:00,
2013-09-24 03:00:00,56.7,53.5,30.11,East,88,0.0,0.0,89,0.00,,---,0.00,VWS V14.01,2013-09-24 07:00:00,
2013-09-24 03:01:00,56.6,53.7,30.11,East,88,0.0,0.0,90,0.00,,---,0.00,VWS V14.01,2013-09-24 07:01:00,
2013-09-24 03:02:00,56.5,53.6,30.11,East,88,0.0,0.0,90,0.00,,---,0.00,VWS V14.01,2013-09-24 07:02:00,
2013-09-24 03:03:00,56.4,53.5,30.11,East,88,0.0,0.0,90,0.00,,---,0.00,VWS V14.01,2013-09-24 07:03:00,
2013-09-24 03:04:00,56.4,53.5,30.11,East,88,0.0,0.0,90,0.00,,---,0.00,VWS V14.01,2013-09-24 07:04:00,
2013-09-24 03:05:00,56.3,53.4,30.11,East,87,0.0,0.0,90,0.00,,---,0.00,VWS V14.01,2013-09-24 07:05:00,
2013-09-24 03:06:00,56.1,53.2,30.11,East,88,0.0,0.0,90,0.00,,---,0.00,VWS V14.01,2013-09-24 07:06:00,
2013-09-24 03:07:00,56.1,53.2,30.11,East,87,0.0,0.0,90,0.00,,---,0.00,VWS V14.01,2013-09-24 07:07:00,
2013-09-24 03:08:00,56.0,53.1,30.11,East,87,0.0,0.0,90,0.00,,---,0.00,VWS V14.01,2013-09-24 07:08:00,
2013-09-24 03:09:00,55.9,53.0,30.11,East,88,0.0,0.0,90,0.00,,---,0.00,VWS V14.01,2013-09-24 07:09:00,
2013-09-24 03:10:00,55.9,53.0,30.11,East,88,0.0,0.0,90,0.00,,---,0.00,VWS V14.01,2013-09-24 07:10:00,
2013-09-24 03:11:00,55.7,52.8,30.11,East,88,0.0,0.0,90,0.00,,---,0.00,VWS V14.01,2013-09-24 07:11:00,
2013-09-24 03:12:00,55.7,53.1,30.11,East,88,0.0,0.0,91,0.00,,---,0.00,VWS V14.01,2013-09-24 07:12:00,
2013-09-24 03:13:00,55.6,53.0,30.11,East,88,0.0,0.0,91,0.00,,---,0.00,VWS V14.01,2013-09-24 07:13:00,
2013-09-24 03:14:00,55.6,53.0,30.11,East,88,0.0,0.0,91,0.00,,---,0.00,VWS V14.01,2013-09-24 07:14:00,
2013-09-24 03:15:00,55.5,52.9,30.11,East,88,0.0,0.0,91,0.00,,---,0.00,VWS V14.01,2013-09-24 07:15:00,
2013-09-24 03:16:00,55.6,53.0,30.11,East,88,0.0,1.0,91,0.00,,---,0.00,VWS V14.01,2013-09-24 07:16:00,
2013-09-24 03:17:00,55.6,53.3,30.11,East,87,1.0,1.0,92,0.00,,---,0.00,VWS V14.01,2013-09-24 07:17:00,
2013-09-24 03:18:00,55.6,53.3,30.11,East,88,2.0,2.0,92,0.00,,---,0.00,VWS V14.01,2013-09-24 07:18:00,
2013-09-24 03:19:00,55.6,53.3,30.11,East,88,2.0,2.0,92,0.00,,---,0.00,VWS V14.01,2013-09-24 07:19:00,
2013-09-24 03:20:00,55.7,53.4,30.11,East,88,2.0,2.0,92,0.00,,---,0.00,VWS V14.01,2013-09-24 07:20:00,
2013-09-24 03:21:00,55.8,53.5,30.11,East,88,2.0,2.0,92,0.00,,---,0.00,VWS V14.01,2013-09-24 07:21:00,
2013-09-24 23:18:00,60.8,57.2,30.00,North,0,0.0,0.0,88,0.00,,---,0.00,VWS V14.01,2013-09-25 03:18:00,
2013-09-24 23:19:00,60.8,57.5,30.00,North,0,0.0,0.0,89,0.00,,---,0.00,VWS V14.01,2013-09-25 03:19:00,
2013-09-24 23:20:00,60.9,57.3,30.00,North,0,0.0,0.0,88,0.00,,---,0.00,VWS V14.01,2013-09-25 03:20:00,
2013-09-24 23:21:00,60.9,57.6,30.00,North,0,0.0,0.0,89,0.00,,---,0.00,VWS V14.01,2013-09-25 03:21:00,
2013-09-24 23:22:00,60.9,57.3,30.00,North,0,0.0,0.0,88,0.00,,---,0.00,VWS V14.01,2013-09-25 03:22:00,
2013-09-24 23:23:00,61.0,57.4,30.00,North,0,0.0,0.0,88,0.00,,---,0.00,VWS V14.01,2013-09-25 03:23:00,
2013-09-24 23:24:00,61.0,57.4,30.00,North,0,0.0,0.0,88,0.00,,---,0.00,VWS V14.01,2013-09-25 03:24:00,
2013-09-24 23:25:00,61.0,57.4,30.00,North,0,0.0,0.0,88,0.00,,---,0.00,VWS V14.01,2013-09-25 03:25:00,
2013-09-24 23:26:00,60.9,57.3,30.00,North,0,0.0,0.0,88,0.00,,---,0.00,VWS V14.01,2013-09-25 03:26:00,
2013-09-24 23:27:00,60.9,57.3,30.00,North,0,0.0,0.0,88,0.00,,---,0.00,VWS V14.01,2013-09-25 03:27:00,
2013-09-24 23:28:00,60.9,57.3,30.00,North,0,0.0,0.0,88,0.00,,---,0.00,VWS V14.01,2013-09-25 03:28:00,
2013-09-24 23:29:00,60.9,57.3,30.00,North,0,0.0,0.0,88,0.00,,---,0.00,VWS V14.01,2013-09-25 03:29:00,
2013-09-24 23:30:00,60.9,57.6,30.00,North,0,0.0,0.0,89,0.00,,---,0.00,VWS V14.01,2013-09-25 03:30:00,
2013-09-24 23:31:00,60.9,57.6,30.00,North,0,0.0,0.0,89,0.00,,---,0.00,VWS V14.01,2013-09-25 03:31:00,
2013-09-24 23:32:00,60.8,57.5,30.00,North,0,0.0,0.0,89,0.00,,---,0.00,VWS V14.01,2013-09-25 03:32:00,
2013-09-24 23:33:00,60.9,57.6,30.00,North,0,0.0,0.0,89,0.00,,---,0.00,VWS V14.01,2013-09-25 03:33:00,
2013-09-24 23:34:00,60.9,57.6,30.00,North,0,0.0,0.0,89,0.00,,---,0.00,VWS V14.01,2013-09-25 03:34:00,
2013-09-24 23:35:00,60.8,57.5,30.00,North,0,0.0,0.0,89,0.00,,---,0.00,VWS V14.01,2013-09-25 03:35:00,
2013-09-24 23:36:00,60.9,57.6,30.00,North,0,0.0,0.0,89,0.00,,---,0.00,VWS V14.01,2013-09-25 03:36:00,
2013-09-24 23:37:00,61.0,57.7,30.00,North,0,0.0,0.0,89,0.00,,---,0.00,VWS V14.01,2013-09-25 03:37:00,
2013-09-24 23:38:00,61.1,57.8,30.00,North,0,0.0,0.0,89,0.00,,---,0.00,VWS V14.01,2013-09-25 03:38:00,
2013-09-24 23:39:00,61.1,57.8,30.00,North,0,0.0,0.0,89,0.00,,---,0.00,VWS V14.01,2013-09-25 03:39:00,
2013-09-24 23:40:00,61.2,57.6,30.00,North,0,0.0,0.0,88,0.00,,---,0.00,VWS V14.01,2013-09-25 03:40:00,
2013-09-24 23:41:00,61.3,57.7,30.00,North,0,0.0,0.0,88,0.00,,---,0.00,VWS V14.01,2013-09-25 03:41:00,
2013-09-24 23:42:00,61.4,57.8,30.00,North,0,0.0,0.0,88,0.00,,---,0.00,VWS V14.01,2013-09-25 03:42:00,
2013-09-24 23:43:00,61.4,57.8,30.00,North,0,0.0,0.0,88,0.00,,---,0.00,VWS V14.01,2013-09-25 03:43:00,
2013-09-24 23:44:00,61.5,57.9,30.00,North,0,0.0,0.0,88,0.00,,---,0.00,VWS V14.01,2013-09-25 03:44:00,
2013-09-24 23:45:00,61.5,57.6,30.00,North,0,0.0,0.0,87,0.00,,---,0.00,VWS V14.01,2013-09-25 03:45:00,
2013-09-24 23:46:00,61.5,57.6,30.00,North,0,0.0,0.0,87,0.00,,---,0.00,VWS V14.01,2013-09-25 03:46:00,
2013-09-24 23:47:00,61.5,57.6,30.00,North,0,0.0,0.0,87,0.00,,---,0.00,VWS V14.01,2013-09-25 03:47:00,
2013-09-24 23:48:00,61.5,57.6,30.00,North,0,0.0,0.0,87,0.00,,---,0.00,VWS V14.01,2013-09-25 03:48:00,
2013-09-24 23:49:00,61.4,57.5,30.00,North,0,0.0,0.0,87,0.00,,---,0.00,VWS V14.01,2013-09-25 03:49:00,
2013-09-24 23:50:00,61.4,57.5,30.00,North,0,0.0,0.0,87,0.00,,---,0.00,VWS V14.01,2013-09-25 03:50:00,
2013-09-24 23:51:00,61.4,57.5,30.00,North,0,0.0,0.0,87,0.00,,---,0.00,VWS V14.01,2013-09-25 03:51:00,
2013-09-24 23:52:00,61.3,57.7,30.00,North,0,0.0,0.0,88,0.00,,---,0.00,VWS V14.01,2013-09-25 03:52:00,
2013-09-24 23:53:00,61.3,57.7,30.00,North,0,0.0,0.0,88,0.00,,---,0.00,VWS V14.01,2013-09-25 03:53:00,
2013-09-24 23:54:00,61.3,57.7,30.00,North,0,0.0,0.0,88,0.00,,---,0.00,VWS V14.01,2013-09-25 03:54:00,
2013-09-24 23:55:00,61.3,57.7,30.00,North,0,0.0,0.0,88,0.00,,---,0.00,VWS V14.01,2013-09-25 03:55:00,
2013-09-24 23:56:00,61.3,57.7,30.00,North,0,0.0,0.0,88,0.00,,---,0.00,VWS V14.01,2013-09-25 03:56:00,
2013-09-24 23:57:00,61.2,57.6,30.00,North,0,0.0,0.0,88,0.00,,---,0.00,VWS V14.01,2013-09-25 03:57:00,
2013-09-24 23:58:00,61.2,57.6,30.00,North,0,0.0,0.0,88,0.00,,---,0.00,VWS V14.01,2013-09-25 03:58:00,
2013-09-24 23:59:00,61.2,57.6,30.00,North,0,0.0,0.0,88,0.00,,---,0.00,VWS V14.01,2013-09-25 03:59:00,